TimeCDT,TemperatureF,Dew PointF,Humidity,Sea Level PressureIn,VisibilityMPH,Wind Direction,Wind SpeedMPH,Gust SpeedMPH,PrecipitationIn,Events,Conditions,WindDirDegrees,DateUTC
12:16 AM,53.6,42.8,67,29.84,10.0,SSW,4.6,-,N/A,,Clear,200,2012-10-01 05:16:00
12:37 AM,53.6,42.8,67,29.84,10.0,South,6.9,-,N/A,,Scattered Clouds,180,2012-10-01 05:37:00
12:56 AM,53.6,42.8,67,29.84,10.0,WSW,3.5,-,N/A,,Clear,250,2012-10-01 05:56:00
1:16 AM,53.6,42.8,67,29.83,10.0,SSW,3.5,-,N/A,,Clear,210,2012-10-01 06:16:00
1:37 AM,51.8,42.8,71,29.83,10.0,SW,3.5,-,N/A,,Clear,230,2012-10-01 06:37:00
1:56 AM,51.8,42.8,71,29.83,10.0,SW,3.5,-,N/A,,Clear,220,2012-10-01 06:56:00
2:37 AM,51.8,42.8,71,29.83,10.0,WSW,3.5,-,N/A,,Scattered Clouds,240,2012-10-01 07:37:00
3:17 AM,51.8,44.6,76,29.83,10.0,WSW,5.8,-,N/A,,Scattered Clouds,240,2012-10-01 08:17:00
3:37 AM,51.8,44.6,76,29.83,10.0,West,4.6,-,N/A,,Clear,260,2012-10-01 08:37:00
3:56 AM,50.0,44.6,82,29.83,10.0,West,3.5,-,N/A,,Clear,270,2012-10-01 08:56:00
4:17 AM,48.2,44.6,87,29.84,10.0,West,3.5,-,N/A,,Clear,270,2012-10-01 09:17:00
4:56 AM,51.8,44.6,76,29.85,10.0,West,5.8,-,N/A,,Clear,280,2012-10-01 09:56:00
5:17 AM,51.8,44.6,76,29.85,10.0,West,5.8,-,N/A,,Clear,280,2012-10-01 10:17:00
5:37 AM,51.8,44.6,76,29.85,10.0,WNW,3.5,-,N/A,,Clear,290,2012-10-01 10:37:00
5:56 AM,50.0,44.6,82,29.85,10.0,West,3.5,-,N/A,,Clear,280,2012-10-01 10:56:00
6:17 AM,50.0,44.6,82,29.86,10.0,West,4.6,-,N/A,,Clear,280,2012-10-01 11:17:00
6:37 AM,51.8,46.4,82,29.87,10.0,WNW,4.6,-,N/A,,Clear,300,2012-10-01 11:37:00
6:56 AM,51.8,46.4,82,29.87,10.0,NW,3.5,-,N/A,,Clear,310,2012-10-01 11:56:00
7:17 AM,51.8,46.4,82,29.88,10.0,WNW,4.6,-,N/A,,Clear,300,2012-10-01 12:17:00
7:36 AM,53.6,46.4,77,29.88,10.0,NW,3.5,-,N/A,,Clear,310,2012-10-01 12:36:00
7:57 AM,53.6,46.4,77,29.89,10.0,WNW,6.9,-,N/A,,Scattered Clouds,300,2012-10-01 12:57:00
8:17 AM,53.6,46.4,77,29.89,10.0,WNW,3.5,-,N/A,,Mostly Cloudy,300,2012-10-01 13:17:00
8:36 AM,53.6,46.4,77,29.89,10.0,WNW,5.8,-,N/A,,Scattered Clouds,300,2012-10-01 13:36:00
8:57 AM,53.6,46.4,77,29.90,10.0,WNW,5.8,-,N/A,,Clear,290,2012-10-01 13:57:00
9:16 AM,53.6,46.4,77,29.91,10.0,WNW,6.9,-,N/A,,Clear,290,2012-10-01 14:16:00
9:36 AM,53.6,46.4,77,29.91,10.0,WNW,5.8,-,N/A,,Scattered Clouds,300,2012-10-01 14:36:00
9:57 AM,55.4,46.4,72,29.91,10.0,NW,6.9,-,N/A,,Clear,310,2012-10-01 14:57:00
10:16 AM,57.2,48.2,72,29.91,10.0,WNW,8.1,16.1,N/A,,Clear,300,2012-10-01 15:16:00
10:36 AM,60.8,48.2,63,29.92,10.0,NW,5.8,-,N/A,,Scattered Clouds,320,2012-10-01 15:36:00
10:57 AM,59.0,48.2,67,29.92,10.0,NW,10.4,-,N/A,,Mostly Cloudy,310,2012-10-01 15:57:00
11:16 AM,59.0,48.2,67,29.92,10.0,NW,8.1,-,N/A,,Mostly Cloudy,310,2012-10-01 16:16:00
11:36 AM,60.8,48.2,63,29.93,10.0,NW,12.7,16.1,N/A,,Mostly Cloudy,310,2012-10-01 16:36:00
12:16 PM,62.6,48.2,59,29.93,10.0,North,12.7,19.6,N/A,,Mostly Cloudy,350,2012-10-01 17:16:00
12:37 PM,62.6,46.4,55,29.92,10.0,NNW,9.2,-,N/A,,Scattered Clouds,340,2012-10-01 17:37:00
12:56 PM,64.4,44.6,49,29.92,10.0,NW,12.7,18.4,N/A,,Mostly Cloudy,320,2012-10-01 17:56:00
1:16 PM,64.4,44.6,49,29.92,10.0,WNW,11.5,17.3,N/A,,Scattered Clouds,300,2012-10-01 18:16:00
1:37 PM,64.4,42.8,45,29.92,10.0,NW,10.4,20.7,N/A,,Scattered Clouds,310,2012-10-01 18:37:00
1:56 PM,64.4,42.8,45,29.92,10.0,NW,8.1,18.4,N/A,,Scattered Clouds,310,2012-10-01 18:56:00
2:17 PM,64.4,42.8,45,29.92,10.0,NW,9.2,17.3,N/A,,Scattered Clouds,320,2012-10-01 19:17:00
3:17 PM,64.4,37.4,37,29.92,10.0,NNW,10.4,18.4,N/A,,Clear,330,2012-10-01 20:17:00
3:36 PM,64.4,37.4,37,29.92,10.0,WNW,12.7,23.0,N/A,,Clear,300,2012-10-01 20:36:00
3:57 PM,64.4,37.4,37,29.92,10.0,NW,10.4,16.1,N/A,,Clear,320,2012-10-01 20:57:00
4:16 PM,64.4,37.4,37,29.92,10.0,NNW,9.2,-,N/A,,Clear,340,2012-10-01 21:16:00
4:37 PM,64.4,37.4,37,29.93,10.0,NNW,9.2,17.3,N/A,,Clear,330,2012-10-01 21:37:00
4:56 PM,64.4,37.4,37,29.93,10.0,NNW,9.2,-,N/A,,Clear,340,2012-10-01 21:56:00
5:17 PM,64.4,35.6,34,29.93,10.0,NNW,10.4,-,N/A,,Clear,340,2012-10-01 22:17:00
5:36 PM,62.6,35.6,37,29.94,10.0,North,6.9,-,N/A,,Clear,350,2012-10-01 22:36:00
5:56 PM,62.6,35.6,37,29.94,10.0,North,5.8,-,N/A,,Clear,360,2012-10-01 22:56:00
6:17 PM,60.8,35.6,39,29.95,10.0,NNW,5.8,-,N/A,,Clear,340,2012-10-01 23:17:00
6:36 PM,60.8,35.6,39,29.95,10.0,North,4.6,-,N/A,,Clear,350,2012-10-01 23:36:00
6:57 PM,57.2,35.6,44,29.96,10.0,NNW,3.5,-,N/A,,Clear,340,2012-10-01 23:57:00
7:17 PM,57.2,35.6,44,29.96,10.0,NNW,3.5,-,N/A,,Clear,340,2012-10-02 00:17:00
7:36 PM,51.8,35.6,54,29.97,10.0,Calm,Calm,-,N/A,,Clear,0,2012-10-02 00:36:00
7:57 PM,50.0,35.6,58,29.97,10.0,Calm,Calm,-,N/A,,Clear,0,2012-10-02 00:57:00
8:16 PM,48.2,35.6,62,29.97,10.0,Calm,Calm,-,N/A,,Clear,0,2012-10-02 01:16:00
8:37 PM,44.6,35.6,71,29.97,10.0,Calm,Calm,-,N/A,,Clear,0,2012-10-02 01:37:00
8:57 PM,44.6,35.6,71,29.97,10.0,Calm,Calm,-,N/A,,Clear,0,2012-10-02 01:57:00
9:16 PM,42.8,33.8,70,29.97,10.0,Calm,Calm,-,N/A,,Clear,0,2012-10-02 02:16:00
9:37 PM,41.0,33.8,76,29.98,10.0,Calm,Calm,-,N/A,,Clear,0,2012-10-02 02:37:00
9:57 PM,39.2,33.8,81,29.98,10.0,Calm,Calm,-,N/A,,Clear,0,2012-10-02 02:57:00
10:16 PM,39.2,33.8,81,29.98,10.0,Calm,Calm,-,N/A,,Clear,0,2012-10-02 03:16:00
10:37 PM,37.4,33.8,87,29.98,10.0,Calm,Calm,-,N/A,,Clear,0,2012-10-02 03:37:00
10:56 PM,37.4,33.8,87,29.98,10.0,Calm,Calm,-,N/A,,Clear,0,2012-10-02 03:56:00
11:16 PM,37.4,33.8,87,29.98,10.0,Calm,Calm,-,N/A,,Clear,0,2012-10-02 04:16:00
11:37 PM,35.6,30.2,81,29.98,10.0,Calm,Calm,-,N/A,,Clear,0,2012-10-02 04:37:00
11:56 PM,35.6,32.0,87,29.98,10.0,Calm,Calm,-,N/A,,Clear,0,2012-10-02 04:56:00